Flag for U.S.A. Weather past 2 weeks in Fayetteville, North Carolina, U.S.A.

Now
86 °F

Sunny.


Feels Like: 92 °F
Forecast: 73 / 91 °F
Wind: 3 mph from Southeast

Location: Fayetteville Regional Airport

Current Time: Jul 22, 2014 at 8:30:14 PM

Latest Report: Jul 22, 2014 at 7:53 PM


Visibility: 10 mi

Pressure: 30.04 "Hg

Humidity: 63%

Dew point: 72 °F

Location of FayettevilleLocation

Historic Weather in Fayetteville — Graph

°F

Fayetteville temperature yesterday

Maximum temperature yesterday: 77 °F (at 8:59 AM)
Minimum temperature yesterday: 73 °F (at 8:53 PM)
Average temperature yesterday: 74 °F

Past Weeks' High & Low Weather Summary

 TemperatureHumidityPressure
High99 °F (Jul 9, 3:53 PM)97% (Jul 10, 8:53 PM)30.22 "Hg (Jul 10, 8:53 PM)
Low65 °F (Jul 17, 5:53 AM)24% (Jul 9, 2:53 PM)29.76 "Hg (Jul 15, 5:53 PM)
Average79 °F72%30.02 "Hg
* Reported Jul 7 12:53 PM — Jul 22 12:53 PM, Fayetteville, Weather by CustomWeather, © 2014

Note: Actual official high and low records may vary slightly from our data, if they occured in-between our weather recording intervals... More about our weather records

Advertising

Fayetteville weather history for previous 24 hours

 ConditionsComfort  
Time TempWeatherWind HumidityBarometerVisibility
12:53 PM
Jul 22
84 °FCloudy.5 mph70%30.11 "Hg10 mi
11:53 AM83 °FBroken clouds.6 mph72%30.12 "Hg10 mi
10:53 AM79 °FOvercast.6 mph82%30.13 "Hg10 mi
9:53 AM76 °FOvercast.6 mph91%30.13 "Hg8 mi
8:53 AM75 °FFog.5 mph94%30.12 "Hg4 mi
7:55 AM74 °FFog.3 mph97%30.14 "Hg3 mi
6:53 AM74 °FFog.5 mph97%30.10 "Hg1 mi
5:53 AM73 °FFog.5 mph97%30.08 "Hg1 mi
5:01 AM73 °FFog.3 mph97%30.10 "Hg1 mi
3:53 AM73 °FFog.3 mph97%30.08 "Hg1 mi
2:53 AM73 °FFog.5 mph94%30.09 "Hg4 mi
1:53 AM73 °FFog.6 mph94%30.10 "Hg6 mi
12:53 AM73 °FFog.5 mph94%30.11 "Hg6 mi
11:53 PM
Jul 21
73 °FFog.6 mph94%30.12 "Hg5 mi
10:53 PM73 °FFog.5 mph94%30.13 "Hg6 mi
9:53 PM73 °FFog.3 mph94%30.12 "Hg6 mi
8:53 PM73 °FSunny.No wind94%30.10 "Hg10 mi
Weather by CustomWeather, © 2014

See weather overviewHow to use our weather pages